This is the latest recevied weather packets stored in our database for station/object IT9KWW-13. If no packets are shown the sender has not sent any weather packets the latest 10 day(s).
| Time | Temp. | Humidity | Pressure | Rain* | Wind** | Luminosity | Snow |
|---|---|---|---|---|---|---|---|
| 1777098920 | 16.67° C | 66% | 1013.9 hPa | 0 mm | - | - | - |
| 1777098789 | 16.67° C | 68% | 1013.9 hPa | 0 mm | - | - | - |
| 1777098668 | 16.67° C | 67% | - | 0 mm | - | - | - |
| 1777098549 | 17.22° C | 68% | - | 0 mm | - | - | - |
| 1777098429 | 17.22° C | 67% | - | 0 mm | - | - | - |
| 1777098261 | 17.22° C | 68% | 1013.9 hPa | 0 mm | - | - | - |
| 1777098141 | 17.78° C | 68% | 1013.9 hPa | 0 mm | - | - | - |
| 1777098009 | 17.78° C | 67% | 1013.9 hPa | 0 mm | - | - | - |
| 1777097889 | 17.78° C | 68% | 1014.9 hPa | 0 mm | - | - | - |
| 1777097768 | 17.22° C | 65% | 1014.9 hPa | 0 mm | - | - | - |
| 1777097637 | 17.22° C | 62% | 1014.9 hPa | 0 mm | - | - | - |
| 1777097517 | 16.67° C | 61% | 1014.9 hPa | 0 mm | - | - | - |
| 1777097396 | 16.67° C | 62% | 1014.9 hPa | 0 mm | - | - | - |
| 1777097265 | 16.11° C | 67% | 1014.9 hPa | 0 mm | - | - | - |
| 1777097145 | 15.56° C | 65% | 1014.9 hPa | 0 mm | - | - | - |
| 1777097025 | 15.56° C | 64% | 1014.9 hPa | 0 mm | - | - | - |
| 1777096893 | 15° C | 64% | 1014.9 hPa | 0 mm | - | - | - |
| 1777096772 | 15° C | 64% | 1013.9 hPa | 0 mm | - | - | - |
| 1777096653 | 15° C | 64% | 1013.9 hPa | 0 mm | - | - | - |
| 1777096533 | 15° C | 64% | 1013.9 hPa | 0 mm | - | - | - |
| 1777096412 | 15° C | 66% | 1013.9 hPa | 0 mm | - | - | - |
| 1777096292 | 15.56° C | 65% | 1013.9 hPa | 0 mm | - | - | - |
| 1777096161 | 15.56° C | 65% | 1013.9 hPa | 0 mm | - | - | - |
| 1777096041 | 15.56° C | 65% | 1013.9 hPa | 0 mm | - | - | - |
| 1777095920 | 15.56° C | 65% | 1013.9 hPa | 0 mm | - | - | - |
* Rain latest hour (hover to see other rain measurements)
** Current wind speed in m/s (hover to see current wind gust speed)